[[{"header":{"parameterUnit":"m.s-1","parameterCategory":1,"la1":30.2991,"la2":30.254,"lo1":-89.0895,"lo2":-89.0444,"dy":0.0017,"dx":0.0017,"nx":28,"ny":28,"refTime":"2024-06-02T03:00:00:Z","depth":0,"parameterNumber":2,"parameterNumberName":"U-component_of_WINDS"},"data":[0,0,0,0,0,0,0,0,0,0,0,0,0,0,0,0,0,0,0,0,0,0,0,0,0,0,0,0,0,0,0,0,0,0,0,0,0,0,0,0,0,0,0,0,0,0,0,0,0,0,0,0,0,0,0,0,0,0,-2.9754,-2.9752,0,-2.9603,-2.9601,-2.96,-2.9519,-2.9519,-2.9518,-2.9518,-2.9356,-2.9352,-2.9348,0,0,0,0,0,0,0,0,0,0,0,0,0,-2.9964,-2.996,-2.9754,-2.9752,-2.975,-2.9603,-2.9601,-2.9599,-2.9519,-2.9519,-2.9518,-2.9518,-2.9357,-2.9352,-2.9347,0,0,0,0,0,0,0,0,0,0,0,0,0,-2.9849,-2.9959,-2.9754,-2.9693,-2.9686,-2.9604,-2.9601,-2.9599,-2.9519,-2.9519,-2.9518,-2.9518,-2.9359,-2.9353,-2.9347,-2.9312,0,0,-2.9327,-2.9325,0,0,0,0,0,0,0,0,-2.9855,-2.9841,-2.9703,-2.9697,-2.9689,-2.958,-2.9616,-2.9502,-2.9519,-2.9582,-2.9518,-2.9518,-2.943,-2.9418,-2.939,-2.9305,-2.9298,-2.9327,-2.9323,-2.932,-2.9318,0,0,0,0,0,0,0,-2.9863,-2.9847,-2.9694,-2.9702,-2.9692,-2.967,-2.9653,-2.9594,-2.9509,-2.9576,-2.957,-2.9554,-2.9426,-2.9396,-2.9385,-2.9295,-2.9327,-2.9321,-2.9317,-2.9315,-2.9171,-2.9171,0,0,0,0,0,0,-2.9882,-2.9854,-2.9699,-2.9689,-2.9773,-2.9666,-2.9647,-2.9615,-2.9509,-2.9493,-2.9554,-2.9551,-2.9407,-2.9393,-2.9379,-2.933,-2.932,-2.9314,-2.9311,-2.9171,-2.9171,-2.9171,0,0,0,0,0,0,-2.9887,-2.9869,-2.9705,-2.977,-2.9747,-2.9663,-2.9627,-2.9612,-2.9582,-2.9493,-2.9476,-2.954,-2.9406,-2.9388,-2.9329,-2.9324,-2.9312,-2.9306,-2.9171,-2.9171,-2.9171,-2.9234,0,0,0,0,0,0,-2.9894,-2.9872,-2.986,-2.9771,-2.9744,-2.966,-2.9626,-2.9609,-2.9572,-2.9566,-2.9475,-2.9459,-2.9405,-2.9339,-2.9323,-2.9315,-2.9301,-2.9171,-2.9171,-2.9171,-2.9232,-2.9236,-2.9239,0,0,0,0,0,-2.9901,-2.9882,-2.986,-2.9841,-2.9728,-2.966,-2.9645,-2.9585,-2.9573,-2.9558,-2.95,-2.9462,-2.9327,-2.9334,-2.9315,-2.9305,-2.9171,-2.9171,-2.9171,-2.923,-2.9235,-2.9239,0,0,0,0,0,0,-2.997,-2.9869,-2.9843,-2.9795,-2.9737,-2.9647,-2.9627,-2.9592,-2.9534,-2.9531,-2.9456,-2.9436,-2.9384,-2.9338,-2.9347,-2.9265,-2.9245,-2.9241,-2.9296,-2.93,-2.9304,-2.9315,-2.9296,0,0,0,0,0,-2.998,-2.9936,-2.9849,-2.9815,-2.9788,-2.9713,-2.9681,-2.964,-2.9575,-2.955,-2.9488,-2.9425,-2.9367,-2.9331,-2.9274,-2.9225,-2.9202,-2.9208,-2.9212,-2.9216,-2.9213,-2.9181,-2.9182,-2.9171,-2.9171,-2.9171,0,0,-3.0,-2.9939,-2.9915,-2.9827,-2.9778,-2.9731,-2.9693,-2.9645,-2.9609,-2.9541,-2.9483,-2.9435,-2.9359,-2.9305,-2.9278,-2.9265,-2.9211,-2.9216,-2.9219,-2.9214,-2.9181,-2.9182,-2.9183,-2.9171,-2.9171,-2.9171,0,0,-3.0011,-2.9962,-2.9927,-2.9878,-2.9804,-2.9755,-2.9747,-2.9661,-2.9628,-2.9568,-2.9516,-2.9471,-2.9375,-2.9323,-2.9283,-2.9274,-2.9236,-2.9257,-2.9276,-2.9246,-2.9247,-2.9248,-2.9242,-2.9242,-2.9255,-2.9255,-2.9255,0,-3.0043,-2.9974,-2.9913,-2.9868,-2.983,-2.977,-2.9732,-2.9687,-2.9597,-2.9571,-2.9559,-2.9437,-2.9382,-2.9313,-2.9311,-2.9282,-2.9268,-2.9267,-2.9253,-2.9252,-2.9252,-2.9246,-2.9244,-2.9258,-2.9258,-2.9258,-2.9257,0,-3.0016,-2.9968,-2.9949,-2.9866,-2.9825,-2.9785,-2.9715,-2.9681,-2.9643,-2.9594,-2.9532,-2.9464,-2.9391,-2.9372,-2.9334,-2.9297,-2.9292,-2.9268,-2.9246,-2.9257,-2.925,-2.9247,-2.9262,-2.9261,-2.926,-2.926,0,0,-3.0066,-2.9951,-2.9944,-2.9905,-2.9819,-2.9779,-2.9735,-2.9666,-2.9637,-2.9577,-2.9535,-2.9456,-2.9432,-2.9388,-2.9343,-2.9317,-2.9312,-2.9295,-2.9292,-2.9299,-2.9265,-2.9283,-2.9281,-2.9286,-2.9286,-2.9285,-2.927,0,-3.0063,-2.9983,-2.9927,-2.9867,-2.9821,-2.9763,-2.9723,-2.9664,-2.9617,-2.9568,-2.9514,-2.9459,-2.9433,-2.9406,-2.9378,-2.9319,-2.9303,-2.9319,-2.9244,-2.9242,-2.9264,-2.9278,-2.9297,-2.9286,-2.9268,-2.9267,-2.9267,0,-3.0049,-2.9993,-2.993,-2.9848,-2.9826,-2.9792,-2.9724,-2.9679,-2.961,-2.9577,-2.9528,-2.9483,-2.9429,-2.9414,-2.9339,-2.935,-2.9316,-2.9282,-2.928,-2.927,-2.9254,-2.9266,-2.9282,-2.928,-2.9262,-2.9263,-2.9263,0,-3.009,-2.9998,-2.9948,-2.9917,-2.982,-2.9797,-2.9755,-2.9687,-2.9648,-2.9588,-2.9562,-2.9495,-2.9458,-2.9406,-2.9342,-2.9338,-2.9272,-2.9252,-2.9241,-2.9242,-2.9228,-2.923,-2.9238,-2.921,-2.921,-2.921,-2.921,0,-3.0092,-3.0055,-2.9965,-2.9934,-2.989,-2.9824,-2.9781,-2.9734,-2.9673,-2.963,-2.9575,-2.9535,-2.9454,-2.9403,-2.9352,-2.9296,-2.928,-2.925,-2.9236,-2.9254,-2.9257,-2.9229,-2.9227,-2.9209,-2.9209,-2.9209,-2.921,0,-3.0129,-3.0067,-3.0009,-2.9923,-2.99,-2.9871,-2.9796,-2.9762,-2.9712,-2.9657,-2.964,-2.9561,-2.9498,-2.943,-2.9343,-2.9309,-2.9255,-2.9237,-2.9279,-2.9271,-2.9263,-2.9264,-2.9251,-2.9246,-2.9224,-2.9224,-2.9225,0,-3.0133,-3.0104,-3.0015,-2.9983,-2.9944,-2.9893,-2.9854,-2.9788,-2.9749,-2.9668,-2.9644,-2.9577,-2.9521,-2.9422,-2.9354,-2.9287,-2.9266,-2.9266,-2.9256,-2.9274,-2.9264,-2.9266,-2.9262,-2.9269,-2.927,-2.927,-2.9271,0,-3.0147,-3.0118,-3.0066,-3.0003,-2.996,-2.9906,-2.985,-2.9826,-2.9748,-2.9707,-2.9644,-2.96,-2.9513,-2.9446,-2.9371,-2.9324,-2.9283,-2.9275,-2.9268,-2.9285,-2.931,-2.9295,-2.9286,-2.9275,-2.9275,-2.9274,-2.9274,-2.9274,-3.0166,-3.0137,-3.007,-3.0013,-2.9965,-2.9914,-2.9878,-2.9824,-2.9771,-2.9696,-2.9659,-2.9596,-2.9525,-2.942,-2.9375,-2.9322,-2.9309,-2.93,-2.9298,-2.9296,-2.93,-2.9321,-2.9308,-2.9308,-2.9307,-2.9307,-2.9307,0,-3.0176,-3.013,-3.0079,-3.0003,-2.9958,-2.9927,-2.9863,-2.9827,-2.9772,-2.9712,-2.9658,-2.9583,-2.9519,-2.9447,-2.9377,-2.9348,-2.9327,-2.9332,-2.9332,-2.9322,-2.9316,-2.9328,-2.935,-2.935,-2.935,-2.935,-2.935,-2.935,-3.0175,-3.0123,-3.0087,-3.0009,-2.9962,-2.9902,-2.9868,-2.9819,-2.9771,-2.9692,-2.9639,-2.9593,-2.9527,-2.9452,-2.939,-2.937,-2.9346,-2.9355,-2.933,-2.9326,-2.9322,-2.9319,-2.933,-2.9351,-2.9351,-2.9339,-2.9339,-2.9339]},{"header":{"parameterUnit":"m.s-1","parameterCategory":1,"la1":30.2991,"la2":30.254,"lo1":-89.0895,"lo2":-89.0444,"dy":0.0017,"dx":0.0017,"nx":28,"ny":28,"refTime":"2024-06-02T03:00:00:Z","depth":0,"parameterNumber":3,"parameterNumberName":"V-component_of_WINDS"},"data":[0,0,0,0,0,0,0,0,0,0,0,0,0,0,0,0,0,0,0,0,0,0,0,0,0,0,0,0,0,0,0,0,0,0,0,0,0,0,0,0,0,0,0,0,0,0,0,0,0,0,0,0,0,0,0,0,0,0,5.2109,5.2111,0,5.2276,5.2278,5.2279,5.2288,5.2286,5.2284,5.2282,5.2448,5.2454,5.246,0,0,0,0,0,0,0,0,0,0,0,0,0,5.1794,5.18,5.2109,5.2111,5.2113,5.2275,5.2278,5.228,5.2288,5.2286,5.2284,5.2281,5.2446,5.2453,5.2461,0,0,0,0,0,0,0,0,0,0,0,0,0,5.1942,5.1801,5.2108,5.2137,5.2141,5.2275,5.2278,5.2281,5.2289,5.2286,5.2283,5.228,5.2443,5.2453,5.2462,5.2577,0,0,5.249,5.2494,0,0,0,0,0,0,0,0,5.1934,5.1954,5.2131,5.2135,5.214,5.2258,5.2227,5.238,5.229,5.2233,5.2282,5.2279,5.2387,5.2401,5.2438,5.2585,5.2592,5.2491,5.2497,5.2501,5.2503,0,0,0,0,0,0,0,5.1924,5.1947,5.2175,5.2133,5.2139,5.214,5.2158,5.2256,5.2324,5.2237,5.2238,5.2258,5.2389,5.2429,5.2442,5.2594,5.2491,5.2499,5.2505,5.2508,5.2846,5.285,0,0,0,0,0,0,5.1908,5.1938,5.2169,5.218,5.2028,5.2148,5.2168,5.2223,5.2323,5.2335,5.2261,5.2258,5.2415,5.2431,5.2448,5.2592,5.2501,5.2509,5.2515,5.2843,5.2847,5.2851,0,0,0,0,0,0,5.1902,5.1929,5.2163,5.2059,5.2089,5.2157,5.2218,5.2228,5.2268,5.234,5.2352,5.229,5.2413,5.2435,5.2546,5.2597,5.2513,5.2522,5.2839,5.2844,5.2849,5.2879,0,0,0,0,0,0,5.1893,5.1927,5.1972,5.206,5.2095,5.2259,5.2221,5.2233,5.2285,5.2283,5.2371,5.2382,5.2412,5.2532,5.2555,5.2609,5.2529,5.2835,5.2841,5.2847,5.2873,5.2884,5.2893,0,0,0,0,0,5.1881,5.1972,5.1974,5.2002,5.2153,5.2262,5.2281,5.2316,5.2289,5.2335,5.2381,5.238,5.2588,5.2543,5.2569,5.2627,5.2832,5.2839,5.2847,5.2869,5.2882,5.2893,0,0,0,0,0,0,5.1885,5.1984,5.1987,5.2109,5.2178,5.2263,5.2322,5.2328,5.2404,5.2399,5.2436,5.2456,5.2567,5.2607,5.2556,5.2745,5.2706,5.272,5.2714,5.2727,5.2737,5.2726,5.2537,0,0,0,0,0,5.19,5.1982,5.2063,5.2163,5.2197,5.2254,5.2302,5.2323,5.2394,5.2423,5.2477,5.2545,5.2626,5.2679,5.2757,5.2879,5.2899,5.2931,5.2941,5.2949,5.296,5.303,5.3046,5.2876,5.2876,5.2876,0,0,5.1932,5.1996,5.2045,5.2165,5.2221,5.2304,5.2278,5.2366,5.2428,5.2435,5.2545,5.2587,5.2666,5.2784,5.2838,5.2821,5.3012,5.2959,5.2964,5.2972,5.3039,5.3055,5.307,5.2881,5.288,5.2879,0,0,5.2033,5.2089,5.218,5.2237,5.2322,5.2359,5.2381,5.2467,5.2496,5.2607,5.2615,5.2688,5.2826,5.2883,5.2929,5.3054,5.3056,5.3078,5.3131,5.3198,5.3212,5.3224,5.327,5.3286,5.3089,5.3089,5.3089,0,5.2062,5.2189,5.2225,5.2316,5.2369,5.2381,5.2474,5.2526,5.2631,5.2667,5.2647,5.2823,5.2876,5.3008,5.3039,5.3075,5.3102,5.3069,5.3207,5.322,5.3231,5.3276,5.3293,5.3091,5.3091,5.3091,5.3091,0,5.2221,5.2309,5.2372,5.2477,5.2536,5.2627,5.2676,5.2732,5.2748,5.2787,5.2901,5.2965,5.3058,5.3091,5.3106,5.3226,5.3213,5.3199,5.3162,5.3249,5.3292,5.3309,5.3095,5.3094,5.3093,5.3093,0,0,5.2329,5.2454,5.2477,5.2526,5.2621,5.269,5.278,5.2874,5.2922,5.2994,5.3071,5.3189,5.3178,5.3231,5.3252,5.3311,5.3409,5.3291,5.3293,5.3312,5.3548,5.3559,5.3578,5.341,5.3414,5.3416,5.3542,0,5.2442,5.2607,5.2644,5.2785,5.2868,5.2882,5.2961,5.3028,5.3067,5.3142,5.3184,5.3268,5.3246,5.3279,5.3338,5.3385,5.3457,5.3376,5.3483,5.3487,5.3465,5.36,5.3612,5.3727,5.3558,5.3561,5.3563,0,5.2597,5.2676,5.2827,5.2914,5.295,5.3021,5.311,5.3182,5.3258,5.3282,5.3343,5.3359,5.3453,5.3411,5.3542,5.3486,5.3532,5.3562,5.3567,5.358,5.3531,5.3618,5.3765,5.3783,5.359,5.3587,5.3586,0,5.2664,5.2807,5.2917,5.2958,5.3061,5.3111,5.3156,5.323,5.3284,5.3361,5.3397,5.3483,5.3531,5.3597,5.3636,5.3601,5.3765,5.3725,5.3788,5.3788,5.3823,5.3821,5.3981,5.385,5.3849,5.3849,5.3849,0,5.2788,5.288,5.2949,5.3016,5.312,5.316,5.3262,5.3306,5.3372,5.3448,5.3463,5.3534,5.358,5.3657,5.3687,5.3793,5.3813,5.3836,5.3843,5.3836,5.3833,5.3867,5.3861,5.3854,5.3853,5.3852,5.3851,0,5.288,5.293,5.3051,5.314,5.3165,5.3237,5.3313,5.3379,5.3419,5.3515,5.3539,5.3602,5.3693,5.3738,5.3851,5.3872,5.3992,5.3993,5.3967,5.397,5.4032,5.4026,5.4221,5.425,5.4097,5.4099,5.41,0,5.2957,5.3029,5.3127,5.318,5.3228,5.3312,5.3369,5.3411,5.3469,5.3562,5.3617,5.371,5.3787,5.3932,5.3987,5.4074,5.4078,5.414,5.4091,5.4082,5.4082,5.4078,5.4086,5.4149,5.4151,5.4152,5.4153,0,5.309,5.3111,5.3193,5.3285,5.3353,5.3426,5.3498,5.354,5.3593,5.3657,5.3753,5.3813,5.393,5.4022,5.4113,5.4158,5.4165,5.4168,5.4188,5.4182,5.4165,5.4177,5.3993,5.4164,5.4163,5.4162,5.4161,5.4161,5.3179,5.3244,5.3324,5.3415,5.3475,5.3542,5.3609,5.3659,5.374,5.384,5.3859,5.3961,5.4036,5.4159,5.4208,5.4287,5.4273,5.4301,5.4308,5.4315,5.432,5.4151,5.4303,5.4303,5.4303,5.4302,5.4302,0,5.3314,5.3366,5.345,5.3552,5.3624,5.3626,5.3706,5.3766,5.3856,5.3926,5.4002,5.4113,5.4203,5.4265,5.4356,5.4408,5.4413,5.4431,5.4428,5.4439,5.4326,5.4301,5.4425,5.4425,5.4425,5.4425,5.4425,5.4425,5.3393,5.3505,5.3536,5.3677,5.3729,5.3831,5.3877,5.3939,5.3996,5.4119,5.4195,5.4236,5.4303,5.44,5.4483,5.4498,5.4532,5.455,5.4566,5.4459,5.4446,5.4434,5.4411,5.4556,5.4556,5.4673,5.4674,5.4674]}]]